Regional Weather Roundup
Issued by NWS

Home | Current Version | Previous Version | Graphics & Text | Print | Product List | Glossary On
Versions: 1 2 3 4 5 6 7 8 9 10 11 12 13 14 15 16 17 18 19 20 21 22 23 24 25 26 27 28 29 30 31 32 33 34 35 36 37 38 39 40 41 42 43 44 45 46 47 48 49 50
608
ASUS45 KCYS 281210
RWRWY

WYOMING REGIONAL WEATHER ROUNDUP
NATIONAL WEATHER SERVICE CHEYENNE WY
500 AM MST TUE FEB 28 2017

NOTE:  "FAIR" INDICATES FEW OR NO CLOUDS BELOW 12,000 FEET
WITH NO SIGNIFICANT WEATHER AND/OR OBSTRUCTIONS TO VISIBILITY.

WYZ001-281300-
YELLOWSTONE NATIONAL PARK

CITY           SKY/WX    TMP DP  RH WIND       PRES   REMARKS
LK YELLOWSTONE   N/A      8   5  87 CALM      29.60S
6HR MIN TEMP:  -3; 6HR MAX TEMP:   8; 6HR PCP:  0.03;

W YELLOWSTONE  NOT AVBL

$$
WYZ002>013-054>058-071-098>099-281300-
NORTHERN WYOMING

CITY           SKY/WX    TMP DP  RH WIND       PRES   REMARKS
JACKSON        CLOUDY    14  12  92 SW9       29.68S WCI   2
CODY           FAIR      23   5  46 SW6G16    29.66R WCI  16
GREYBULL       FAIR      22  18  85 SE3       29.70R
6HR MIN TEMP:  22; 6HR MAX TEMP:  29;

WORLAND        FAIR      20  11  68 NE3       29.69R
6HR MIN TEMP:  17; 6HR MAX TEMP:  30;

SHERIDAN       FAIR      17  13  84 SE17      29.65R WCI   1
6HR MIN TEMP:  14; 6HR MAX TEMP:  25; 6HR PCP:  0.04;

BUFFALO        FAIR      17  10  74 SW3       29.63R
6HR MIN TEMP:  16; 6HR MAX TEMP:  23; 6HR PCP: TRACE;

GILLETTE       MOCLDY    22  19  89 W7        29.64F WCI  13
6HR MIN TEMP:  18; 6HR MAX TEMP:  24;

HULETT         LGT SNOW  25  21  86 CALM      29.63R
NEWCASTLE      FAIR      19  12  73 CALM      29.65S

$$
WYZ014>020-022>026-101>103-281300-
CENTRAL WYOMING

CITY           SKY/WX    TMP DP  RH WIND       PRES   REMARKS
BIG PINEY      FAIR     -16 -18  91 E8        29.71F WCI -34
6HR MIN TEMP: -16; 6HR MAX TEMP:  -2;

PINEDALE       FAIR     -13 -18  77 NW9       29.72S WCI -31
DUBOIS         FAIR      10  -2  56 NW12G22   29.60S WCI  -4
LANDER         FAIR       8  -7  50 SE5       29.68R WCI   0
6HR MIN TEMP:   5; 6HR MAX TEMP:  20;

RIVERTON       FAIR       5  -6  60 SW10      29.68R WCI -10
6HR MIN TEMP:   5; 6HR MAX TEMP:  16;

CASPER         FAIR      13   0  56 SW17      29.69R WCI  -4
6HR MIN TEMP:  11; 6HR MAX TEMP:  25;

DOUGLAS        FAIR      13   1  59 W8        29.69S WCI   2
6HR MIN TEMP:   9; 6HR MAX TEMP:  29;


$$
WYZ021-027>030-104>119-281300-
SOUTHERN WYOMING

CITY           SKY/WX    TMP DP  RH WIND       PRES   REMARKS
EVANSTON       MOCLDY     9   5  84 SW5       29.71S WCI   1
6HR MIN TEMP:   9; 6HR MAX TEMP:  13; 6HR PCP: TRACE;

KEMMERER         N/A    N/A N/A N/A CALM      29.70S
FORT BRIDGER   FAIR      10   8  89 SW12      29.74S WCI  -4
ROCK SPRINGS   FAIR       7   3  84 SW9       29.72S WCI  -7
6HR MIN TEMP:   5; 6HR MAX TEMP:  13;

DIXON            N/A     14  11  88 E5        29.78R WCI   7
RAWLINS        FAIR       6  -1  73 S3        29.72R
6HR MIN TEMP:   3; 6HR MAX TEMP:  19;

SARATOGA       CLOUDY    14   9  79 SW5       29.73R WCI   6
LARAMIE        FAIR      13   3  64 W14       29.67R WCI  -2
6HR MIN TEMP:  10; 6HR MAX TEMP:  17;

CHEYENNE       CLOUDY    22   9  57 NW16G24   29.66S WCI   8
6HR MIN TEMP:  22; 6HR MAX TEMP:  25;

TORRINGTON     FAIR      24   9  52 W12       29.69F WCI  13
6HR MIN TEMP:  24; 6HR MAX TEMP:  30;

PINE BLUFFS    FAIR      27  10  50 NW18G31   29.65S WCI  13

$$




USA.gov is the U.S. government's official web portal to all federal, state and local government web resources and services.